This is the latest recevied weather packets stored in our database for station/object KC1DMA. If no packets are shown the sender has not sent any weather packets the latest 10 day(s).
| Time | Temp. | Humidity | Pressure | Rain* | Wind** | Luminosity | Snow |
|---|---|---|---|---|---|---|---|
| 1777661187 | 16.11° C | 42% | 1012.3 hPa | - | - | 794 W/m² | - |
| 1777660881 | 15.56° C | 37% | 1012.3 hPa | - | - | 824 W/m² | - |
| 1777660578 | 15.56° C | 42% | 1012.3 hPa | - | - | 851 W/m² | - |
| 1777660275 | 16.67° C | 38% | 1012.3 hPa | - | - | 868 W/m² | - |
| 1777659971 | 15.56° C | 41% | 1012 hPa | - | - | 924 W/m² | - |
| 1777659669 | 15° C | 40% | 1012.3 hPa | - | - | 849 W/m² | - |
| 1777659366 | 15° C | 42% | 1012.3 hPa | - | - | 630 W/m² | - |
| 1777659062 | 15.56° C | 41% | 1012.4 hPa | - | - | 882 W/m² | - |
| 1777658760 | 15° C | 41% | 1012.4 hPa | - | - | 873 W/m² | - |
| 1777658456 | 15.56° C | 42% | 1012.4 hPa | - | - | 808 W/m² | - |
| 1777658153 | 15.56° C | 38% | 1012.3 hPa | - | - | 883 W/m² | - |
| 1777657850 | 15° C | 40% | 1012.2 hPa | - | - | 439 W/m² | - |
| 1777657547 | 14.44° C | 43% | 1012.4 hPa | - | - | 886 W/m² | - |
| 1777657244 | 15° C | 39% | 1012.4 hPa | - | - | 830 W/m² | - |
| 1777656941 | 14.44° C | 42% | 1012.4 hPa | - | - | 882 W/m² | - |
| 1777656638 | 13.89° C | 41% | 1012.6 hPa | - | - | 887 W/m² | - |
| 1777656333 | 15° C | 44% | 1012.7 hPa | - | - | 319 W/m² | - |
| 1777656029 | 13.89° C | 42% | 1012.6 hPa | - | - | 945 W/m² | - |
| 1777655726 | 14.44° C | 41% | 1012.5 hPa | - | - | 906 W/m² | - |
| 1777655422 | 14.44° C | 40% | 1012.5 hPa | - | - | 943 W/m² | - |
| 1777655119 | 14.44° C | 40% | 1012.8 hPa | - | - | 943 W/m² | - |
| 1777654816 | 14.44° C | 39% | 1012.7 hPa | - | - | 973 W/m² | - |
| 1777654514 | 13.33° C | 46% | 1012.8 hPa | - | - | 408 W/m² | - |
| 1777654212 | 13.89° C | 45% | 1012.9 hPa | - | - | 811 W/m² | - |
| 1777653909 | 13.89° C | 45% | 1012.9 hPa | - | - | 811 W/m² | - |
* Rain since midnight (hover to see other rain measurements)
** Current wind speed in m/s (hover to see current wind gust speed)